Location: *
(52.2090°N, 4.1550°W)
Time: 19:48:26
(UTC+00:00)

USA 229 DEB - Pass Details

Date: 19 July 2019
Orbit: 1003 x 1210 km, 63.4° (Epoch: 12 August)

Event Time Altitude Azimuth Distance (km) Brightness Sun altitude
Rises 22:35:07 0° 222° (SW) 3,746 6.3 -13.3°
Reaches altitude 10° 22:37:39 10° 222° (SW) 2,814 5.7 -13.5°
Maximum altitude 22:44:18 88° 136° (SE) 1,065 3.7 -13.9°
Drops below altitude 10° 22:51:20 10° 46° (NE) 2,961 6.3 -14.3°
Sets 22:54:04 0° 47° (NE) 3,953 7.0 -14.5°
